OpenBCM V1.13 (Linux)

Packet Radio Mailbox

DB0FHN

[JN59NK Nuernberg]

 Login: GUEST





  
CX2SA  > KEP      05.11.14 03:53l 74 Lines 3022 Bytes #999 (0) @ WW
BID : ARLK086
Read: GUEST DK3UZ DK7NR
Subj: ARLK086 Keplerian data
Path: DB0FHN<HB9EAS<DB0ZAV<UA6ADV<GB7CIP<I0OJJ<VE3UIL<IQ2LB<IK1NHL<CX2SA
Sent: 141104/2224Z @:CX2SA.SAL.URY.SOAM #:12015 [Salto] FBB7.00e $:ARLK086
From: CX2SA@CX2SA.SAL.URY.SOAM
To  : KEP@ARL


ZCZC SK86
QST de W1AW
Keplerian Bulletin 86  ARLK086
From ARRL Headquarters
Newington, CT  November 4, 2014
To all radio amateurs

SB KEP ARL ARLK086
ARLK086 Keplerian data

Special thanks to AMSAT-NA (AMSAT.ORG) for the following Keplerian
data.

Decode 2-line elsets with the following key:
1 AAAAAU 00  0  0 BBBBB.BBBBBBBB  .CCCCCCCC  00000-0  00000-0 0  DDDZ
2 AAAAA EEE.EEEE FFF.FFFF GGGGGGG HHH.HHHH III.IIII JJ.JJJJJJJJKKKKKZ
KEY: A-CATALOGNUM B-EPOCHTIME C-DECAY D-ELSETNUM E-INCLINATION F-RAAN
G-ECCENTRICITY H-ARGPERIGEE I-MNANOM J-MNMOTION K-ORBITNUM Z-CHECKSUM

0 AO-07
1 07530U 74089B   14308.52231704 -.00000053  00000-0 -61462-4 0  1112
2 07530 101.4911 285.8202 0012164 022.6407 088.5305 12.53608791829107
0 AO-16
1 20439U 90005D   14308.45222940  .00000174  00000-0  80217-4 0  1644
2 20439 098.5196 243.2153 0012077 104.6445 032.4863 14.32418117294563
0 FO-29
1 24278U 96046B   14307.55044355 -.00000039  00000-0 -11772-5 0  5098
2 24278 098.5162 302.1837 0349462 296.1018 176.1967 13.53035332899512
0 ISS
1 25544U 98067A   14308.74501826  .00013097  00000-0  22943-3 0  3569
2 25544 051.6457 122.8084 0004046 001.9007 094.7536 15.50930322913137
0 NO-44
1 26931U 01043C   14308.40224395  .00000173  00000-0  98513-4 0  7443
2 26931 067.0536 036.8703 0007557 273.1018 086.9218 14.30182146683655
0 SO-50
1 27607U 02058C   14307.85813591  .00000629  00000-0  11333-3 0  5652
2 27607 064.5547 166.4930 0064341 334.7517 025.0443 14.74085019638062
0 CO-55
1 27844U 03031E   14307.98620333  .00000298  00000-0  15575-3 0   627
2 27844 098.6979 314.7512 0009096 226.3613 186.2037 14.21603236588449
0 RS-22
1 27939U 03042A   14308.49255906  .00001382  00000-0  26332-3 0    78
2 27939 097.8182 115.7816 0013886 025.7451 334.4427 14.65471363593279
0 CO-58
1 28895U 05043F   14308.51340489  .00000918  00000-0  19097-3 0  9148
2 28895 097.8240 143.0563 0016067 288.3879 071.5576 14.62160380480757
0 CO-65
1 32785U 08021C   14307.74406358  .00002430  00000-0  28499-3 0  1073
2 32785 097.6824 354.3553 0015173 091.1877 034.3370 14.85786585352749
0 COMPASS 1
1 32787U 08021E   14308.35016182  .00004799  00000-0  51762-3 0   916
2 32787 097.6854 357.8012 0015063 080.5962 279.6957 14.88767976353031
0 DO-64
1 32789U 08021G   14308.11176935  .00009366  00000-0  85414-3 0  1237
2 32789 097.7060 006.6616 0012666 064.0683 326.3126 14.95259480353396
0 RS-30
1 32953U 08025A   14308.51862168  .00000010  00000-0 -13620-7 0  4334
2 32953 082.4976 113.9603 0018551 209.1046 150.9007 12.43052113292697
0 KKS-1
1 33499U 09002H   14307.84791442  .00001193  00000-0  19042-3 0  5093
2 33499 098.2083 076.9971 0009795 176.0584 305.3175 14.73747717310411
0 AO-73
1 39445U 13066AF  14307.43893523  .00003281  00000-0  43817-3 0  3010
2 39445 097.7627 013.2846 0062263 150.0091 210.4711 14.78861555 49610

Keplerian bulletins are transmitted twice weekly from W1AW.  The
next scheduled transmission of these data will be Friday, November
7, 2014, at 2330z on Baudot and BPSK31.
NNNN


Read previous mail | Read next mail


 14.07.2026 18:09:59lGo back Go up